Year,Month,Day,Hour,Minute,Value (Times are PST for temperature in C)
2018,06,18,00,00,19.80
2018,06,18,00,01,19.70
2018,06,18,00,02,19.70
2018,06,18,00,03,19.70
2018,06,18,00,04,19.70
2018,06,18,00,05,19.70
2018,06,18,00,06,19.70
2018,06,18,00,07,19.60
2018,06,18,00,08,19.60
2018,06,18,00,09,19.60
2018,06,18,00,10,19.60
2018,06,18,00,11,19.50
2018,06,18,00,12,19.50
2018,06,18,00,13,19.50
2018,06,18,00,14,19.50
2018,06,18,00,15,19.40
2018,06,18,00,16,19.40
2018,06,18,00,17,19.40
2018,06,18,00,18,19.40
2018,06,18,00,19,19.40
2018,06,18,00,20,19.40
2018,06,18,00,21,19.40
2018,06,18,00,22,19.40
2018,06,18,00,23,19.30
2018,06,18,00,24,19.30
2018,06,18,00,25,19.30
2018,06,18,00,26,19.30
2018,06,18,00,27,19.30
2018,06,18,00,28,19.30
2018,06,18,00,29,19.30
2018,06,18,00,30,19.30
2018,06,18,00,31,19.30
2018,06,18,00,32,19.20
2018,06,18,00,33,19.20
2018,06,18,00,34,19.20
2018,06,18,00,35,19.20
2018,06,18,00,36,19.10
2018,06,18,00,37,19.10
2018,06,18,00,38,19.10
2018,06,18,00,39,19.00
2018,06,18,00,40,19.00
2018,06,18,00,41,19.00
2018,06,18,00,42,19.00
2018,06,18,00,43,18.90
2018,06,18,00,44,18.90
2018,06,18,00,45,18.90
2018,06,18,00,46,18.90
2018,06,18,00,47,18.80
2018,06,18,00,48,18.80
2018,06,18,00,49,18.80
2018,06,18,00,50,18.80
2018,06,18,00,51,18.80
2018,06,18,00,52,18.70
2018,06,18,00,53,18.70
2018,06,18,00,54,18.70
2018,06,18,00,55,18.70
2018,06,18,00,56,18.70
2018,06,18,00,57,18.60
2018,06,18,00,58,18.60
2018,06,18,00,59,18.60
2018,06,18,01,00,18.60
2018,06,18,01,01,18.60
2018,06,18,01,02,18.70
2018,06,18,01,03,18.70
2018,06,18,01,04,18.70
2018,06,18,01,05,18.70
2018,06,18,01,06,18.70
2018,06,18,01,07,18.70
2018,06,18,01,08,18.70
2018,06,18,01,09,18.70
2018,06,18,01,10,18.70
2018,06,18,01,11,18.70
2018,06,18,01,12,18.70
2018,06,18,01,13,18.60
2018,06,18,01,14,18.60
2018,06,18,01,15,18.60
2018,06,18,01,16,18.60
2018,06,18,01,17,18.60
2018,06,18,01,18,18.60
2018,06,18,01,19,18.60
2018,06,18,01,20,18.60
2018,06,18,01,21,18.60
2018,06,18,01,22,18.60
2018,06,18,01,23,18.60
2018,06,18,01,24,18.60
2018,06,18,01,25,18.50
2018,06,18,01,26,18.50
2018,06,18,01,27,18.50
2018,06,18,01,28,18.50
2018,06,18,01,29,18.40
2018,06,18,01,30,18.40
2018,06,18,01,31,18.40
2018,06,18,01,32,18.40
2018,06,18,01,33,18.40
2018,06,18,01,34,18.40
2018,06,18,01,35,18.40
2018,06,18,01,36,18.40
2018,06,18,01,37,18.40
2018,06,18,01,38,18.30
2018,06,18,01,39,18.30
2018,06,18,01,40,18.30
2018,06,18,01,41,18.30
2018,06,18,01,42,18.30
2018,06,18,01,43,18.30
2018,06,18,01,44,18.30
2018,06,18,01,45,18.30
2018,06,18,01,46,18.30
2018,06,18,01,47,18.30
2018,06,18,01,48,18.30
2018,06,18,01,49,18.30
2018,06,18,01,50,18.30
2018,06,18,01,51,18.20
2018,06,18,01,52,18.20
2018,06,18,01,53,18.20
2018,06,18,01,54,18.20
2018,06,18,01,55,18.20
2018,06,18,01,56,18.20
2018,06,18,01,57,18.20
2018,06,18,01,58,18.10
2018,06,18,01,59,18.10
2018,06,18,02,00,18.10
2018,06,18,02,01,18.10
2018,06,18,02,02,18.00
2018,06,18,02,03,18.00
2018,06,18,02,04,17.90
2018,06,18,02,05,17.90
2018,06,18,02,06,17.90
2018,06,18,02,07,17.90
2018,06,18,02,08,17.80
2018,06,18,02,09,17.80
2018,06,18,02,10,17.80
2018,06,18,02,11,17.70
2018,06,18,02,12,17.70
2018,06,18,02,13,17.70
2018,06,18,02,14,17.70
2018,06,18,02,15,17.60
2018,06,18,02,16,17.60
2018,06,18,02,17,17.60
2018,06,18,02,18,17.50
2018,06,18,02,19,17.50
2018,06,18,02,20,17.50
2018,06,18,02,21,17.40
2018,06,18,02,22,17.40
2018,06,18,02,23,17.40
2018,06,18,02,24,17.40
2018,06,18,02,25,17.40
2018,06,18,02,26,17.40
2018,06,18,02,27,17.30
2018,06,18,02,28,17.30
2018,06,18,02,29,17.30
2018,06,18,02,30,17.30
2018,06,18,02,31,17.20
2018,06,18,02,32,17.20
2018,06,18,02,33,17.10
2018,06,18,02,34,17.10
2018,06,18,02,35,17.10
2018,06,18,02,36,17.10
2018,06,18,02,37,17.00
2018,06,18,02,38,17.00
2018,06,18,02,39,17.00
2018,06,18,02,40,16.90
2018,06,18,02,41,16.90
2018,06,18,02,42,16.90
2018,06,18,02,43,16.80
2018,06,18,02,44,16.80
2018,06,18,02,45,16.80
2018,06,18,02,46,16.80
2018,06,18,02,47,16.70
2018,06,18,02,48,16.70
2018,06,18,02,49,16.70
2018,06,18,02,50,16.60
2018,06,18,02,51,16.60
2018,06,18,02,52,16.60
2018,06,18,02,53,16.50
2018,06,18,02,54,16.50
2018,06,18,02,55,16.40
2018,06,18,02,56,16.40
2018,06,18,02,57,16.40
2018,06,18,02,58,16.40
2018,06,18,02,59,16.40
2018,06,18,03,00,16.40
2018,06,18,03,01,16.40
2018,06,18,03,02,16.30
2018,06,18,03,03,16.30
2018,06,18,03,04,16.30
2018,06,18,03,05,16.30
2018,06,18,03,06,16.30
2018,06,18,03,07,16.20
2018,06,18,03,08,16.20
2018,06,18,03,09,16.20
2018,06,18,03,10,16.20
2018,06,18,03,11,16.20
2018,06,18,03,12,16.20
2018,06,18,03,13,16.10
2018,06,18,03,14,16.10
2018,06,18,03,15,16.10
2018,06,18,03,16,16.10
2018,06,18,03,17,16.10
2018,06,18,03,18,16.10
2018,06,18,03,19,16.10
2018,06,18,03,20,16.10
2018,06,18,03,21,16.10
2018,06,18,03,22,16.10
2018,06,18,03,23,16.10
2018,06,18,03,24,16.10
2018,06,18,03,25,16.00
2018,06,18,03,26,16.00
2018,06,18,03,27,16.00
2018,06,18,03,28,16.00
2018,06,18,03,29,16.00
2018,06,18,03,30,16.00
2018,06,18,03,31,16.00
2018,06,18,03,32,15.90
2018,06,18,03,33,15.90
2018,06,18,03,34,15.90
2018,06,18,03,35,15.90
2018,06,18,03,36,15.90
2018,06,18,03,37,15.90
2018,06,18,03,38,15.90
2018,06,18,03,39,15.90
2018,06,18,03,40,15.90
2018,06,18,03,41,15.90
2018,06,18,03,42,15.90
2018,06,18,03,43,15.90
2018,06,18,03,44,15.80
2018,06,18,03,45,15.80
2018,06,18,03,46,15.80
2018,06,18,03,47,15.80
2018,06,18,03,48,15.80
2018,06,18,03,49,15.80
2018,06,18,03,50,15.80
2018,06,18,03,51,15.80
2018,06,18,03,52,15.80
2018,06,18,03,53,15.70
2018,06,18,03,54,15.70
2018,06,18,03,55,15.70
2018,06,18,03,56,15.70
2018,06,18,03,57,15.60
2018,06,18,03,58,15.60
2018,06,18,03,59,15.60
2018,06,18,04,00,15.60
2018,06,18,04,01,15.60
2018,06,18,04,02,15.60
2018,06,18,04,03,15.60
2018,06,18,04,04,15.60
2018,06,18,04,05,15.60
2018,06,18,04,06,15.50
2018,06,18,04,07,15.50
2018,06,18,04,08,15.50
2018,06,18,04,09,15.50
2018,06,18,04,10,15.40
2018,06,18,04,11,15.40
2018,06,18,04,12,15.40
2018,06,18,04,13,15.40
2018,06,18,04,14,15.40
2018,06,18,04,15,15.40
2018,06,18,04,16,15.30
2018,06,18,04,17,15.30
2018,06,18,04,18,15.30
2018,06,18,04,19,15.30
2018,06,18,04,20,15.30
2018,06,18,04,21,15.30
2018,06,18,04,22,15.30
2018,06,18,04,23,15.30
2018,06,18,04,24,15.30
2018,06,18,04,25,15.30
2018,06,18,04,26,15.30
2018,06,18,04,27,15.30
2018,06,18,04,28,15.30
2018,06,18,04,29,15.30
2018,06,18,04,30,15.30
2018,06,18,04,31,15.30
2018,06,18,04,32,15.30
2018,06,18,04,33,15.30
2018,06,18,04,34,15.20
2018,06,18,04,35,15.20
2018,06,18,04,36,15.20
2018,06,18,04,37,15.20
2018,06,18,04,38,15.20
2018,06,18,04,39,15.20
2018,06,18,04,40,15.20
2018,06,18,04,41,15.20
2018,06,18,04,42,15.10
2018,06,18,04,43,15.10
2018,06,18,04,44,15.00
2018,06,18,04,45,15.00
2018,06,18,04,46,15.00
2018,06,18,04,47,15.00
2018,06,18,04,48,15.00
2018,06,18,04,49,15.00
2018,06,18,04,50,15.00
2018,06,18,04,51,14.90
2018,06,18,04,52,14.90
2018,06,18,04,53,14.90
2018,06,18,04,54,14.80
2018,06,18,04,55,14.80
2018,06,18,04,56,14.80
2018,06,18,04,57,14.80
2018,06,18,04,58,14.80
2018,06,18,04,59,14.80
2018,06,18,05,00,14.80
2018,06,18,05,01,14.80
2018,06,18,05,02,14.80
2018,06,18,05,03,14.80
2018,06,18,05,04,14.80
2018,06,18,05,05,14.90
2018,06,18,05,06,14.90
2018,06,18,05,07,14.90
2018,06,18,05,08,14.90
2018,06,18,05,09,14.90
2018,06,18,05,10,14.90
2018,06,18,05,11,14.90
2018,06,18,05,12,14.90
2018,06,18,05,13,14.80
2018,06,18,05,14,14.80
2018,06,18,05,15,14.80
2018,06,18,05,16,14.80
2018,06,18,05,17,14.70
2018,06,18,05,18,14.70
2018,06,18,05,19,14.70
2018,06,18,05,20,14.70
2018,06,18,05,21,14.70
2018,06,18,05,22,14.60
2018,06,18,05,23,14.70
2018,06,18,05,24,14.70
2018,06,18,05,25,14.70
2018,06,18,05,26,14.60
2018,06,18,05,27,14.60
2018,06,18,05,28,14.60
2018,06,18,05,29,14.60
2018,06,18,05,30,14.60
2018,06,18,05,31,14.60
2018,06,18,05,32,14.60
2018,06,18,05,33,14.60
2018,06,18,05,34,14.60
2018,06,18,05,35,14.60
2018,06,18,05,36,14.60
2018,06,18,05,37,14.60
2018,06,18,05,38,14.60
2018,06,18,05,39,14.50
2018,06,18,05,40,14.50
2018,06,18,05,41,14.50
2018,06,18,05,42,14.50
2018,06,18,05,43,14.50
2018,06,18,05,44,14.50
2018,06,18,05,45,14.50
2018,06,18,05,46,14.50
2018,06,18,05,47,14.50
2018,06,18,05,48,14.50
2018,06,18,05,49,14.50
2018,06,18,05,50,14.50
2018,06,18,05,51,14.50
2018,06,18,05,52,14.50
2018,06,18,05,53,14.50
2018,06,18,05,54,14.50
2018,06,18,05,55,14.50
2018,06,18,05,56,14.60
2018,06,18,05,57,14.60
2018,06,18,05,58,14.60
2018,06,18,05,59,14.60
2018,06,18,06,00,14.60
2018,06,18,06,01,14.60
2018,06,18,06,02,14.60
2018,06,18,06,03,14.60
2018,06,18,06,04,14.60
2018,06,18,06,05,14.60
2018,06,18,06,06,14.60
2018,06,18,06,07,14.60
2018,06,18,06,08,14.60
2018,06,18,06,09,14.60
2018,06,18,06,10,14.60
2018,06,18,06,11,14.60
2018,06,18,06,12,14.60
2018,06,18,06,13,14.70
2018,06,18,06,14,14.60
2018,06,18,06,15,14.70
2018,06,18,06,16,14.70
2018,06,18,06,17,14.70
2018,06,18,06,18,14.70
2018,06,18,06,19,14.70
2018,06,18,06,20,14.70
2018,06,18,06,21,14.70
2018,06,18,06,22,14.70
2018,06,18,06,23,14.70
2018,06,18,06,24,14.70
2018,06,18,06,25,14.70
2018,06,18,06,26,14.70
2018,06,18,06,27,14.70
2018,06,18,06,28,14.70
2018,06,18,06,29,14.80
2018,06,18,06,30,14.80
2018,06,18,06,31,14.80
2018,06,18,06,32,14.80
2018,06,18,06,33,14.80
2018,06,18,06,34,14.90
2018,06,18,06,35,14.90
2018,06,18,06,36,14.90
2018,06,18,06,37,14.90
2018,06,18,06,38,14.90
2018,06,18,06,39,15.00
2018,06,18,06,40,15.00
2018,06,18,06,41,15.00
2018,06,18,06,42,15.00
2018,06,18,06,43,15.00
2018,06,18,06,44,15.00
2018,06,18,06,45,15.00
2018,06,18,06,46,15.00
2018,06,18,06,47,15.00
2018,06,18,06,48,15.00
2018,06,18,06,49,15.00
2018,06,18,06,50,15.00
2018,06,18,06,51,15.00
2018,06,18,06,52,15.00
2018,06,18,06,53,15.00
2018,06,18,06,54,15.00
2018,06,18,06,55,15.10
2018,06,18,06,56,15.20
2018,06,18,06,57,15.20
2018,06,18,06,58,15.20
2018,06,18,06,59,15.30
2018,06,18,07,00,15.30
2018,06,18,07,01,15.30
2018,06,18,07,02,15.40
2018,06,18,07,03,15.40
2018,06,18,07,04,15.50
2018,06,18,07,05,15.50
2018,06,18,07,06,15.60
2018,06,18,07,07,15.60
2018,06,18,07,08,15.70
2018,06,18,07,09,15.70
2018,06,18,07,10,15.80
2018,06,18,07,11,15.80
2018,06,18,07,12,15.90
2018,06,18,07,13,15.90
2018,06,18,07,14,16.00
2018,06,18,07,15,16.00
2018,06,18,07,16,16.10
2018,06,18,07,17,16.10
2018,06,18,07,18,16.20
2018,06,18,07,19,16.20
2018,06,18,07,20,16.20
2018,06,18,07,21,16.30
2018,06,18,07,22,16.30
2018,06,18,07,23,16.30
2018,06,18,07,24,16.40
2018,06,18,07,25,16.40
2018,06,18,07,26,16.40
2018,06,18,07,27,16.50
2018,06,18,07,28,16.50
2018,06,18,07,29,16.60
2018,06,18,07,30,16.60
2018,06,18,07,31,16.70
2018,06,18,07,32,16.70
2018,06,18,07,33,16.80
2018,06,18,07,34,16.80
2018,06,18,07,35,16.80
2018,06,18,07,36,16.80
2018,06,18,07,37,16.90
2018,06,18,07,38,16.90
2018,06,18,07,39,16.90
2018,06,18,07,40,17.00
2018,06,18,07,41,17.00
2018,06,18,07,42,17.00
2018,06,18,07,43,17.10
2018,06,18,07,44,17.10
2018,06,18,07,45,17.10
2018,06,18,07,46,17.10
2018,06,18,07,47,17.20
2018,06,18,07,48,17.20
2018,06,18,07,49,17.20
2018,06,18,07,50,17.20
2018,06,18,07,51,17.30
2018,06,18,07,52,17.30
2018,06,18,07,53,17.30
2018,06,18,07,54,17.30
2018,06,18,07,55,17.40
2018,06,18,07,56,17.40
2018,06,18,07,57,17.50
2018,06,18,07,58,17.60
2018,06,18,07,59,17.60
2018,06,18,08,00,17.70
2018,06,18,08,01,17.80
2018,06,18,08,02,17.80
2018,06,18,08,03,17.90
2018,06,18,08,04,18.00
2018,06,18,08,05,18.00
2018,06,18,08,06,18.10
2018,06,18,08,07,18.20
2018,06,18,08,08,18.20
2018,06,18,08,09,18.30
2018,06,18,08,10,18.30
2018,06,18,08,11,18.40
2018,06,18,08,12,18.50
2018,06,18,08,13,18.50
2018,06,18,08,14,18.60
2018,06,18,08,15,18.70
2018,06,18,08,16,18.80
2018,06,18,08,17,18.90
2018,06,18,08,18,19.00
2018,06,18,08,19,19.10
2018,06,18,08,20,19.20
2018,06,18,08,21,19.20
2018,06,18,08,22,19.30
2018,06,18,08,23,19.30
2018,06,18,08,24,19.40
2018,06,18,08,25,19.40
2018,06,18,08,26,19.50
2018,06,18,08,27,19.50
2018,06,18,08,28,19.60
2018,06,18,08,29,19.60
2018,06,18,08,30,19.70
2018,06,18,08,31,19.80
2018,06,18,08,32,19.80
2018,06,18,08,33,19.90
2018,06,18,08,34,20.00
2018,06,18,08,35,20.10
2018,06,18,08,36,20.20
2018,06,18,08,37,20.20
2018,06,18,08,38,20.30
2018,06,18,08,39,20.40
2018,06,18,08,40,20.50
2018,06,18,08,41,20.60
2018,06,18,08,42,20.70
2018,06,18,08,43,20.70
2018,06,18,08,44,20.80
2018,06,18,08,45,20.90
2018,06,18,08,46,20.90
2018,06,18,08,47,21.00
2018,06,18,08,48,21.10
2018,06,18,08,49,21.20
2018,06,18,08,50,21.30
2018,06,18,08,51,21.40
2018,06,18,08,52,21.50
2018,06,18,08,53,21.60
2018,06,18,08,54,21.70
2018,06,18,08,55,21.80
2018,06,18,08,56,21.80
2018,06,18,08,57,21.90
2018,06,18,08,58,21.90
2018,06,18,08,59,22.00
2018,06,18,09,00,22.00
2018,06,18,09,01,22.10
2018,06,18,09,02,22.10
2018,06,18,09,03,22.20
2018,06,18,09,04,22.30
2018,06,18,09,05,22.30
2018,06,18,09,06,22.40
2018,06,18,09,07,22.50
2018,06,18,09,08,22.60
2018,06,18,09,09,22.70
2018,06,18,09,10,22.80
2018,06,18,09,11,22.90
2018,06,18,09,12,22.90
2018,06,18,09,13,23.10
2018,06,18,09,14,23.10
2018,06,18,09,15,23.20
2018,06,18,09,16,23.30
2018,06,18,09,17,23.40
2018,06,18,09,18,23.40
2018,06,18,09,19,23.50
2018,06,18,09,20,23.50
2018,06,18,09,21,23.60
2018,06,18,09,22,23.60
2018,06,18,09,23,23.70
2018,06,18,09,24,23.70
2018,06,18,09,25,23.70
2018,06,18,09,26,23.70
2018,06,18,09,27,23.80
2018,06,18,09,28,23.80
2018,06,18,09,29,23.80
2018,06,18,09,30,23.90
2018,06,18,09,31,23.90
2018,06,18,09,32,24.00
2018,06,18,09,33,24.00
2018,06,18,09,34,24.10
2018,06,18,09,35,24.10
2018,06,18,09,36,24.20
2018,06,18,09,37,24.20
2018,06,18,09,38,24.30
2018,06,18,09,39,24.40
2018,06,18,09,40,24.50
2018,06,18,09,41,24.60
2018,06,18,09,42,24.60
2018,06,18,09,43,24.70
2018,06,18,09,44,24.70
2018,06,18,09,45,24.80
2018,06,18,09,46,24.80
2018,06,18,09,47,24.80
2018,06,18,09,48,24.90
2018,06,18,09,49,25.00
2018,06,18,09,50,25.10
2018,06,18,09,51,25.20
2018,06,18,09,52,25.30
2018,06,18,09,53,25.30
2018,06,18,09,54,25.40
2018,06,18,09,55,25.50
2018,06,18,09,56,25.60
2018,06,18,09,57,25.70
2018,06,18,09,58,25.80
2018,06,18,09,59,25.80
2018,06,18,10,00,25.90
2018,06,18,10,01,25.90
2018,06,18,10,02,25.90
2018,06,18,10,03,25.90
2018,06,18,10,04,25.80
2018,06,18,10,05,25.80
2018,06,18,10,06,25.80
2018,06,18,10,07,25.80
2018,06,18,10,08,25.80
2018,06,18,10,09,25.90
2018,06,18,10,10,25.90
2018,06,18,10,11,26.00
2018,06,18,10,12,26.10
2018,06,18,10,13,26.20
2018,06,18,10,14,26.20
2018,06,18,10,15,26.30
2018,06,18,10,16,26.30
2018,06,18,10,17,26.40
2018,06,18,10,18,26.50
2018,06,18,10,19,26.50
2018,06,18,10,20,26.60
2018,06,18,10,21,26.70
2018,06,18,10,22,26.80
2018,06,18,10,23,27.00
2018,06,18,10,24,27.00
2018,06,18,10,25,27.10
2018,06,18,10,26,27.20
2018,06,18,10,27,27.20
2018,06,18,10,28,27.30
2018,06,18,10,29,27.30
2018,06,18,10,30,27.40
2018,06,18,10,31,27.40
2018,06,18,10,32,27.50
2018,06,18,10,33,27.60
2018,06,18,10,34,27.60
2018,06,18,10,35,27.70
2018,06,18,10,36,27.80
2018,06,18,10,37,27.80
2018,06,18,10,38,27.80
2018,06,18,10,39,27.80
2018,06,18,10,40,27.80
2018,06,18,10,41,27.80
2018,06,18,10,42,27.80
2018,06,18,10,43,27.80
2018,06,18,10,44,27.70
2018,06,18,10,45,27.70
2018,06,18,10,46,27.60
2018,06,18,10,47,27.60
2018,06,18,10,48,27.60
2018,06,18,10,49,27.50
2018,06,18,10,50,27.60
2018,06,18,10,51,27.60
2018,06,18,10,52,27.60
2018,06,18,10,53,27.70
2018,06,18,10,54,27.70
2018,06,18,10,55,27.70
2018,06,18,10,56,27.80
2018,06,18,10,57,27.80
2018,06,18,10,58,27.80
2018,06,18,10,59,27.70
2018,06,18,11,00,27.70
2018,06,18,11,01,27.60
2018,06,18,11,02,27.60
2018,06,18,11,03,27.70
2018,06,18,11,04,27.70
2018,06,18,11,05,27.80
2018,06,18,11,06,27.90
2018,06,18,11,07,28.00
2018,06,18,11,08,28.00
2018,06,18,11,09,28.10
2018,06,18,11,10,28.20
2018,06,18,11,11,28.20
2018,06,18,11,12,28.20
2018,06,18,11,13,28.30
2018,06,18,11,14,28.30
2018,06,18,11,15,28.40
2018,06,18,11,16,28.50
2018,06,18,11,17,28.60
2018,06,18,11,18,28.60
2018,06,18,11,19,28.70
2018,06,18,11,20,28.80
2018,06,18,11,21,28.90
2018,06,18,11,22,29.00
2018,06,18,11,23,29.00
2018,06,18,11,24,29.10
2018,06,18,11,25,29.10
2018,06,18,11,26,29.20
2018,06,18,11,27,29.30
2018,06,18,11,28,29.30
2018,06,18,11,29,29.40
2018,06,18,11,30,29.50
2018,06,18,11,31,29.50
2018,06,18,11,32,29.60
2018,06,18,11,33,29.70
2018,06,18,11,34,29.80
2018,06,18,11,35,29.80
2018,06,18,11,36,29.80
2018,06,18,11,37,29.90
2018,06,18,11,38,29.90
2018,06,18,11,39,29.90
2018,06,18,11,40,29.90
2018,06,18,11,41,29.80
2018,06,18,11,42,29.70
2018,06,18,11,43,29.60
2018,06,18,11,44,29.60
2018,06,18,11,45,29.50
2018,06,18,11,46,29.40
2018,06,18,11,47,29.40
2018,06,18,11,48,29.30
2018,06,18,11,49,29.30
2018,06,18,11,50,29.40
2018,06,18,11,51,29.40
2018,06,18,11,52,29.50
2018,06,18,11,53,29.50
2018,06,18,11,54,29.60
2018,06,18,11,55,29.70
2018,06,18,11,56,29.80
2018,06,18,11,57,29.80
2018,06,18,11,58,29.90
2018,06,18,11,59,29.90
2018,06,18,12,00,29.90
2018,06,18,12,01,30.00
2018,06,18,12,02,30.10
2018,06,18,12,03,30.10
2018,06,18,12,04,30.20
2018,06,18,12,05,30.20
2018,06,18,12,06,30.30
2018,06,18,12,07,30.30
2018,06,18,12,08,30.40
2018,06,18,12,09,30.40
2018,06,18,12,10,30.40
2018,06,18,12,11,30.40
2018,06,18,12,12,30.30
2018,06,18,12,13,30.20
2018,06,18,12,14,30.20
2018,06,18,12,15,30.20
2018,06,18,12,16,30.20
2018,06,18,12,17,30.10
2018,06,18,12,18,30.00
2018,06,18,12,19,29.80
2018,06,18,12,20,29.70
2018,06,18,12,21,29.70
2018,06,18,12,22,29.70
2018,06,18,12,23,29.70
2018,06,18,12,24,29.70
2018,06,18,12,25,29.60
2018,06,18,12,26,29.70
2018,06,18,12,27,29.70
2018,06,18,12,28,29.80
2018,06,18,12,29,29.90
2018,06,18,12,30,29.90
2018,06,18,12,31,30.00
2018,06,18,12,32,30.10
2018,06,18,12,33,30.30
2018,06,18,12,34,30.40
2018,06,18,12,35,30.50
2018,06,18,12,36,30.60
2018,06,18,12,37,30.60
2018,06,18,12,38,30.70
2018,06,18,12,39,30.80
2018,06,18,12,40,30.80
2018,06,18,12,41,30.90
2018,06,18,12,42,30.90
2018,06,18,12,43,30.90
2018,06,18,12,44,30.90
2018,06,18,12,45,30.90
2018,06,18,12,46,30.90
2018,06,18,12,47,30.90
2018,06,18,12,48,30.90
2018,06,18,12,49,30.90
2018,06,18,12,50,30.80
2018,06,18,12,51,30.80
2018,06,18,12,52,30.70
2018,06,18,12,53,30.70
2018,06,18,12,54,30.70
2018,06,18,12,55,30.70
2018,06,18,12,56,30.80
2018,06,18,12,57,30.80
2018,06,18,12,58,30.80
2018,06,18,12,59,30.80
2018,06,18,13,00,30.80
2018,06,18,13,01,30.80
2018,06,18,13,02,30.90
2018,06,18,13,03,30.90
2018,06,18,13,04,30.90
2018,06,18,13,05,30.90
2018,06,18,13,06,30.90
2018,06,18,13,07,30.80
2018,06,18,13,08,30.80
2018,06,18,13,09,30.80
2018,06,18,13,10,30.80
2018,06,18,13,11,30.80
2018,06,18,13,12,30.90
2018,06,18,13,13,30.90
2018,06,18,13,14,30.90
2018,06,18,13,15,30.80
2018,06,18,13,16,30.90
2018,06,18,13,17,30.90
2018,06,18,13,18,30.90
2018,06,18,13,19,31.00
2018,06,18,13,20,31.00
2018,06,18,13,21,31.10
2018,06,18,13,22,31.10
2018,06,18,13,23,31.10
2018,06,18,13,24,31.10
2018,06,18,13,25,31.10
2018,06,18,13,26,31.10
2018,06,18,13,27,31.10
2018,06,18,13,28,31.10
2018,06,18,13,29,31.10
2018,06,18,13,30,31.10
2018,06,18,13,31,31.20
2018,06,18,13,32,31.20
2018,06,18,13,33,31.30
2018,06,18,13,34,31.30
2018,06,18,13,35,31.30
2018,06,18,13,36,31.30
2018,06,18,13,37,31.30
2018,06,18,13,38,31.30
2018,06,18,13,39,31.30
2018,06,18,13,40,31.30
2018,06,18,13,41,31.30
2018,06,18,13,42,31.30
2018,06,18,13,43,31.30
2018,06,18,13,44,31.30
2018,06,18,13,45,31.30
2018,06,18,13,46,31.20
2018,06,18,13,47,31.20
2018,06,18,13,48,31.20
2018,06,18,13,49,31.30
2018,06,18,13,50,31.30
2018,06,18,13,51,31.30
2018,06,18,13,52,31.30
2018,06,18,13,53,31.30
2018,06,18,13,54,31.40
2018,06,18,13,55,31.50
2018,06,18,13,56,31.60
2018,06,18,13,57,31.60
2018,06,18,13,58,31.70
2018,06,18,13,59,31.80
2018,06,18,14,00,31.90
2018,06,18,14,01,32.00
2018,06,18,14,02,32.00
2018,06,18,14,03,31.90
2018,06,18,14,04,31.90
2018,06,18,14,05,31.90
2018,06,18,14,06,31.80
2018,06,18,14,07,31.80
2018,06,18,14,08,31.90
2018,06,18,14,09,31.90
2018,06,18,14,10,32.00
2018,06,18,14,11,32.00
2018,06,18,14,12,32.10
2018,06,18,14,13,32.20
2018,06,18,14,14,32.20
2018,06,18,14,15,32.30
2018,06,18,14,16,32.30
2018,06,18,14,17,32.30
2018,06,18,14,18,32.30
2018,06,18,14,19,32.30
2018,06,18,14,20,32.30
2018,06,18,14,21,32.20
2018,06,18,14,22,32.20
2018,06,18,14,23,32.20
2018,06,18,14,24,32.20
2018,06,18,14,25,32.30
2018,06,18,14,26,32.30
2018,06,18,14,27,32.30
2018,06,18,14,28,32.40
2018,06,18,14,29,32.40
2018,06,18,14,30,32.40
2018,06,18,14,31,32.40
2018,06,18,14,32,32.40
2018,06,18,14,33,32.40
2018,06,18,14,34,32.40
2018,06,18,14,35,32.40
2018,06,18,14,36,32.40
2018,06,18,14,37,32.50
2018,06,18,14,38,32.50
2018,06,18,14,39,32.50
2018,06,18,14,40,32.50
2018,06,18,14,41,32.50
2018,06,18,14,42,32.50
2018,06,18,14,43,32.40
2018,06,18,14,44,32.40
2018,06,18,14,45,32.30
2018,06,18,14,46,32.20
2018,06,18,14,47,32.20
2018,06,18,14,48,32.20
2018,06,18,14,49,32.00
2018,06,18,14,50,31.90
2018,06,18,14,51,31.90
2018,06,18,14,52,31.90
2018,06,18,14,53,31.90
2018,06,18,14,54,31.90
2018,06,18,14,55,32.00
2018,06,18,14,56,32.00
2018,06,18,14,57,32.10
2018,06,18,14,58,32.10
2018,06,18,14,59,32.10
2018,06,18,15,00,32.00
2018,06,18,15,01,31.90
2018,06,18,15,02,31.80
2018,06,18,15,03,31.70
2018,06,18,15,04,31.60
2018,06,18,15,05,31.50
2018,06,18,15,06,31.40
2018,06,18,15,07,31.30
2018,06,18,15,08,31.30
2018,06,18,15,09,31.20
2018,06,18,15,10,31.20
2018,06,18,15,11,31.30
2018,06,18,15,12,31.30
2018,06,18,15,13,31.40
2018,06,18,15,14,31.50
2018,06,18,15,15,31.60
2018,06,18,15,16,31.70
2018,06,18,15,17,31.80
2018,06,18,15,18,31.80
2018,06,18,15,19,31.90
2018,06,18,15,20,31.90
2018,06,18,15,21,31.90
2018,06,18,15,22,31.90
2018,06,18,15,23,32.00
2018,06,18,15,24,32.00
2018,06,18,15,25,32.00
2018,06,18,15,26,32.10
2018,06,18,15,27,32.10
2018,06,18,15,28,32.20
2018,06,18,15,29,32.30
2018,06,18,15,30,32.30
2018,06,18,15,31,32.40
2018,06,18,15,32,32.40
2018,06,18,15,33,32.40
2018,06,18,15,34,32.40
2018,06,18,15,35,32.40
2018,06,18,15,36,32.40
2018,06,18,15,37,32.40
2018,06,18,15,38,32.40
2018,06,18,15,39,32.40
2018,06,18,15,40,32.50
2018,06,18,15,41,32.50
2018,06,18,15,42,32.60
2018,06,18,15,43,32.60
2018,06,18,15,44,32.50
2018,06,18,15,45,32.40
2018,06,18,15,46,32.40
2018,06,18,15,47,32.30
2018,06,18,15,48,32.30
2018,06,18,15,49,32.20
2018,06,18,15,50,32.20
2018,06,18,15,51,32.10
2018,06,18,15,52,32.10
2018,06,18,15,53,32.00
2018,06,18,15,54,31.90
2018,06,18,15,55,31.90
2018,06,18,15,56,31.90
2018,06,18,15,57,31.90
2018,06,18,15,58,31.90
2018,06,18,15,59,32.00
2018,06,18,16,00,32.00
2018,06,18,16,01,32.10
2018,06,18,16,02,32.10
2018,06,18,16,03,32.20
2018,06,18,16,04,32.20
2018,06,18,16,05,32.30
2018,06,18,16,06,32.30
2018,06,18,16,07,32.40
2018,06,18,16,08,32.40
2018,06,18,16,09,32.50
2018,06,18,16,10,32.50
2018,06,18,16,11,32.60
2018,06,18,16,12,32.70
2018,06,18,16,13,32.70
2018,06,18,16,14,32.70
2018,06,18,16,15,32.80
2018,06,18,16,16,32.80
2018,06,18,16,17,32.80
2018,06,18,16,18,32.90
2018,06,18,16,19,32.90
2018,06,18,16,20,32.90
2018,06,18,16,21,32.80
2018,06,18,16,22,32.70
2018,06,18,16,23,32.70
2018,06,18,16,24,32.60
2018,06,18,16,25,32.60
2018,06,18,16,26,32.60
2018,06,18,16,27,32.50
2018,06,18,16,28,32.50
2018,06,18,16,29,32.40
2018,06,18,16,30,32.40
2018,06,18,16,31,32.40
2018,06,18,16,32,32.40
2018,06,18,16,33,32.40
2018,06,18,16,34,32.40
2018,06,18,16,35,32.40
2018,06,18,16,36,32.40
2018,06,18,16,37,32.40
2018,06,18,16,38,32.50
2018,06,18,16,39,32.50
2018,06,18,16,40,32.50
2018,06,18,16,41,32.50
2018,06,18,16,42,32.60
2018,06,18,16,43,32.60
2018,06,18,16,44,32.70
2018,06,18,16,45,32.70
2018,06,18,16,46,32.70
2018,06,18,16,47,32.60
2018,06,18,16,48,32.60
2018,06,18,16,49,32.60
2018,06,18,16,50,32.60
2018,06,18,16,51,32.50
2018,06,18,16,52,32.50
2018,06,18,16,53,32.40
2018,06,18,16,54,32.30
2018,06,18,16,55,32.30
2018,06,18,16,56,32.20
2018,06,18,16,57,32.10
2018,06,18,16,58,32.10
2018,06,18,16,59,32.00
2018,06,18,17,00,31.90
2018,06,18,17,01,31.80
2018,06,18,17,02,31.80
2018,06,18,17,03,31.70
2018,06,18,17,04,31.60
2018,06,18,17,05,31.60
2018,06,18,17,06,31.50
2018,06,18,17,07,31.40
2018,06,18,17,08,31.30
2018,06,18,17,09,31.30
2018,06,18,17,10,31.20
2018,06,18,17,11,31.20
2018,06,18,17,12,31.20
2018,06,18,17,13,31.10
2018,06,18,17,14,31.10
2018,06,18,17,15,31.10
2018,06,18,17,16,31.10
2018,06,18,17,17,31.10
2018,06,18,17,18,31.10
2018,06,18,17,19,31.10